Radiation Dose at Monitoring Post of Fukushima Daini Nuclear Power Station
Date,Time,MP-1(microSv/h),MP-2(microSv/h),MP-3(microSv/h),MP-4(microSv/h),MP-5(microSv/h),MP-6(microSv/h),MP-7(microSv/h),Wind Direction,Wind Velocity(m/s),Rain
2016/09/05,00:00,0.398,0.238,0.417,0.383,0.368,0.197,0.169,south,2.7,No
2016/09/05,00:10,0.396,0.241,0.419,0.383,0.365,0.197,0.170,south-southwest,2.5,No
2016/09/05,00:20,0.398,0.241,0.422,0.387,0.368,0.196,0.168,south-southwest,2.2,No
2016/09/05,00:30,0.398,0.238,0.419,0.384,0.366,0.197,0.168,south-southwest,2.8,No
2016/09/05,00:40,0.395,0.240,0.423,0.384,0.364,0.197,0.169,south,3.1,No
2016/09/05,00:50,0.399,0.240,0.423,0.386,0.367,0.196,0.167,south-southwest,3.3,No
2016/09/05,01:00,0.396,0.239,0.418,0.382,0.367,0.197,0.168,south-southwest,3.6,No
2016/09/05,01:10,0.396,0.240,0.420,0.385,0.365,0.197,0.169,south-southwest,5.4,No
2016/09/05,01:20,0.398,0.238,0.421,0.385,0.368,0.195,0.167,south-southwest,5.7,No
2016/09/05,01:30,0.395,0.238,0.417,0.382,0.366,0.197,0.168,south,5.0,No
2016/09/05,01:40,0.395,0.240,0.422,0.386,0.366,0.196,0.167,south-southwest,4.6,No
2016/09/05,01:50,0.398,0.238,0.419,0.385,0.367,0.198,0.168,south-southwest,4.5,No
2016/09/05,02:00,0.394,0.240,0.418,0.382,0.363,0.197,0.168,south-southwest,4.4,No
2016/09/05,02:10,0.397,0.240,0.422,0.386,0.367,0.195,0.167,south-southwest,5.8,No
2016/09/05,02:20,0.399,0.238,0.420,0.384,0.366,0.197,0.168,south-southwest,5.2,No
2016/09/05,02:30,0.394,0.241,0.418,0.383,0.365,0.196,0.169,south-southwest,4.2,No
2016/09/05,02:40,0.399,0.240,0.421,0.385,0.368,0.196,0.169,south-southwest,3.8,No
2016/09/05,02:50,0.397,0.239,0.420,0.383,0.365,0.196,0.168,south-southwest,4.4,No
2016/09/05,03:00,0.396,0.241,0.420,0.384,0.365,0.196,0.168,south-southwest,4.7,No
2016/09/05,03:10,0.398,0.239,0.422,0.386,0.367,0.198,0.169,south-southwest,5.7,No
2016/09/05,03:20,0.396,0.240,0.420,0.380,0.365,0.197,0.168,south-southwest,4.2,No
2016/09/05,03:30,0.396,0.240,0.421,0.385,0.366,0.196,0.167,south-southwest,4.2,No
2016/09/05,03:40,0.397,0.239,0.422,0.386,0.369,0.198,0.168,south-southwest,4.5,No
2016/09/05,03:50,0.395,0.240,0.418,0.383,0.365,0.196,0.169,south-southwest,4.6,No
2016/09/05,04:00,0.398,0.240,0.421,0.387,0.368,0.196,0.168,south-southwest,3.6,No
2016/09/05,04:10,0.398,0.239,0.421,0.384,0.367,0.198,0.167,south-southwest,3.3,No
2016/09/05,04:20,0.395,0.240,0.418,0.385,0.365,0.196,0.168,south-southwest,3.0,No
2016/09/05,04:30,0.399,0.239,0.422,0.386,0.368,0.197,0.168,south-southwest,3.3,No
2016/09/05,04:40,0.397,0.240,0.421,0.384,0.366,0.196,0.168,south,3.3,No
2016/09/05,04:50,0.394,0.240,0.418,0.386,0.365,0.197,0.167,south,4.1,No
2016/09/05,05:00,0.399,0.238,0.422,0.386,0.368,0.197,0.168,south,4.3,No
2016/09/05,05:10,0.396,0.240,0.420,0.382,0.366,0.197,0.168,south,4.2,No
2016/09/05,05:20,0.395,0.240,0.421,0.385,0.366,0.198,0.168,south,4.0,No
2016/09/05,05:30,0.398,0.238,0.423,0.384,0.369,0.197,0.167,south-southwest,3.1,No
2016/09/05,05:40,0.396,0.241,0.418,0.382,0.365,0.196,0.167,south-southwest,3.3,No
2016/09/05,05:50,0.395,0.239,0.420,0.386,0.367,0.197,0.168,south-southwest,3.6,No
2016/09/05,06:00,0.399,0.240,0.421,0.382,0.367,0.197,0.168,south-southwest,4.7,No
2016/09/05,06:10,0.395,0.239,0.416,0.384,0.364,0.196,0.167,south,5.1,No
2016/09/05,06:20,0.398,0.238,0.422,0.386,0.367,0.197,0.166,south-southwest,4.4,No
2016/09/05,06:30,0.397,0.241,0.421,0.384,0.366,0.196,0.166,south-southwest,5.1,No
2016/09/05,06:40,0.395,0.240,0.415,0.384,0.366,0.196,0.166,south,5.3,No
2016/09/05,06:50,0.397,0.239,0.422,0.386,0.364,0.196,0.166,south-southwest,4.8,No
2016/09/05,07:00,0.399,0.240,0.421,0.382,0.367,0.196,0.167,south-southwest,5.0,No
2016/09/05,07:10,0.397,0.240,0.418,0.381,0.367,0.197,0.167,south-southwest,4.3,No
2016/09/05,07:20,0.394,0.238,0.420,0.384,0.364,0.198,0.167,south-southwest,3.3,No
2016/09/05,07:30,0.399,0.236,0.421,0.386,0.363,0.197,0.167,south,3.9,No
2016/09/05,07:40,0.397,0.239,0.420,0.385,0.368,0.196,0.167,south,3.8,No
2016/09/05,07:50,0.394,0.241,0.416,0.381,0.369,0.197,0.168,south,3.3,No
2016/09/05,08:00,0.396,0.239,0.417,0.383,0.365,0.197,0.168,south,3.2,No
2016/09/05,08:10,0.400,0.239,0.422,0.383,0.363,0.197,0.168,south,3.9,No
2016/09/05,08:20,0.396,0.239,0.421,0.382,0.362,0.196,0.166,south,4.5,No
2016/09/05,08:30,0.395,0.238,0.419,0.386,0.364,0.197,0.168,south,4.7,No
2016/09/05,08:40,0.394,0.239,0.416,0.384,0.363,0.196,0.170,south,6.6,No
2016/09/05,08:50,0.395,0.241,0.414,0.385,0.362,0.196,0.169,south,7.0,No
2016/09/05,09:00,0.395,0.239,0.417,0.383,0.364,0.197,0.170,south,6.1,No
2016/09/05,09:10,0.397,0.240,0.422,0.385,0.365,0.195,0.168,south,7.4,No
2016/09/05,09:20,0.397,0.240,0.422,0.386,0.366,0.195,0.170,south,9.6,No
2016/09/05,09:30,0.395,0.240,0.420,0.387,0.365,0.197,0.169,south,10.3,No
2016/09/05,09:40,0.397,0.240,0.417,0.387,0.367,0.196,0.169,south,9.2,No
2016/09/05,09:50,0.395,0.240,0.417,0.387,0.365,0.196,0.168,south,9.9,No
2016/09/05,10:00,0.394,0.238,0.415,0.387,0.367,0.196,0.168,south,10.9,No
2016/09/05,10:10,0.397,0.240,0.415,0.386,0.367,0.197,0.168,south,9.5,No
2016/09/05,10:20,0.401,0.238,0.415,0.386,0.366,0.196,0.168,south,10.0,No
2016/09/05,10:30,0.400,0.241,0.417,0.387,0.367,0.196,0.167,south,10.5,No
2016/09/05,10:40,0.400,0.241,0.417,0.387,0.367,0.195,0.168,south,10.6,No
2016/09/05,10:50,0.401,0.241,0.418,0.386,0.366,0.197,0.168,south,11.5,No
2016/09/05,11:00,0.399,0.240,0.420,0.385,0.365,0.197,0.168,south,12.3,No
2016/09/05,11:10,0.400,0.240,0.420,0.385,0.367,0.198,0.169,south,12.9,No
2016/09/05,11:20,0.401,0.241,0.420,0.385,0.367,0.198,0.169,south,11.7,No
2016/09/05,11:30,0.400,0.240,0.421,0.387,0.367,0.196,0.169,south,11.4,No
2016/09/05,11:40,0.398,0.242,0.424,0.387,0.368,0.197,0.169,south,11.0,No
2016/09/05,11:50,0.399,0.242,0.424,0.388,0.367,0.197,0.169,south,11.9,No
2016/09/05,12:00,0.399,0.241,0.425,0.388,0.368,0.198,0.168,south,12.9,No
2016/09/05,12:10,0.397,0.241,0.425,0.386,0.367,0.197,0.168,south,11.5,No
2016/09/05,12:20,0.399,0.241,0.425,0.387,0.369,0.199,0.169,south,12.7,No
2016/09/05,12:30,0.399,0.242,0.424,0.387,0.367,0.198,0.167,south,11.8,No
2016/09/05,12:40,0.398,0.241,0.424,0.387,0.368,0.198,0.169,south,12.2,No
2016/09/05,12:50,0.399,0.241,0.424,0.388,0.368,0.198,0.168,south,12.6,No
2016/09/05,13:00,0.398,0.240,0.424,0.387,0.368,0.197,0.169,south,12.1,No
2016/09/05,13:10,0.398,0.240,0.425,0.388,0.368,0.198,0.168,south,10.7,No
2016/09/05,13:20,0.397,0.241,0.422,0.386,0.367,0.197,0.169,south,11.9,No
2016/09/05,13:30,0.398,0.239,0.422,0.386,0.368,0.198,0.167,south,12.3,No
2016/09/05,13:40,0.397,0.239,0.423,0.386,0.368,0.197,0.169,south,11.0,No
2016/09/05,13:50,0.396,0.239,0.420,0.386,0.369,0.197,0.169,south,9.5,No
2016/09/05,14:00,0.396,0.240,0.414,0.385,0.366,0.198,0.168,south,11.7,No
2016/09/05,14:10,0.397,0.240,0.420,0.385,0.367,0.198,0.168,south,12.3,No
2016/09/05,14:20,0.399,0.238,0.420,0.384,0.368,0.199,0.168,south,12.3,No
2016/09/05,14:30,-,-,-,-,-,-,-,-,-,-
2016/09/05,14:40,0.396,0.239,0.419,0.385,0.366,0.197,0.168,south,12.1,No
2016/09/05,14:50,0.397,0.239,0.417,0.384,0.365,0.197,0.167,south,13.1,No
2016/09/05,15:00,0.395,0.239,0.419,0.383,0.366,0.198,0.168,south,12.4,No
2016/09/05,15:10,0.396,0.240,0.418,0.385,0.367,0.198,0.169,south,11.4,No
2016/09/05,15:20,0.396,0.239,0.419,0.382,0.367,0.198,0.167,south,10.0,No
2016/09/05,15:30,0.397,0.239,0.419,0.385,0.368,0.197,0.169,south,10.2,No
2016/09/05,15:40,0.396,0.241,0.419,0.384,0.367,0.198,0.167,south,11.5,No
2016/09/05,15:50,0.397,0.240,0.419,0.382,0.364,0.196,0.168,south,11.1,No
2016/09/05,16:00,0.397,0.239,0.419,0.384,0.365,0.197,0.167,south,10.6,No
2016/09/05,16:10,0.396,0.240,0.419,0.384,0.365,0.197,0.166,south-southwest,9.9,No
2016/09/05,16:20,0.397,0.239,0.419,0.385,0.365,0.197,0.168,south,8.9,No
2016/09/05,16:30,0.396,0.240,0.419,0.387,0.365,0.197,0.168,south,8.8,No
2016/09/05,16:40,0.392,0.239,0.418,0.391,0.363,0.195,0.168,south,8.6,No
2016/09/05,16:50,0.399,0.238,0.423,0.388,0.363,0.196,0.168,south,8.2,No
2016/09/05,17:00,0.402,0.240,0.427,0.386,0.363,0.196,0.167,south,8.0,No
2016/09/05,17:10,0.401,0.242,0.425,0.384,0.364,0.196,0.167,south-southwest,8.6,No
2016/09/05,17:20,0.399,0.241,0.423,0.383,0.363,0.196,0.169,south-southwest,8.1,No
2016/09/05,17:30,0.396,0.239,0.420,0.389,0.366,0.197,0.168,south,7.8,No
2016/09/05,17:40,0.396,0.238,0.416,0.391,0.371,0.198,0.168,south,8.6,No
2016/09/05,17:50,0.398,0.240,0.421,0.386,0.370,0.198,0.167,south-southwest,8.6,No
2016/09/05,18:00,0.403,0.242,0.425,0.387,0.367,0.197,0.167,south-southwest,8.4,No
2016/09/05,18:10,0.400,0.241,0.424,0.383,0.365,0.197,0.169,south-southwest,7.2,No
2016/09/05,18:20,0.398,0.240,0.421,0.389,0.363,0.197,0.169,south-southwest,6.9,No
2016/09/05,18:30,0.397,0.239,0.419,0.391,0.370,0.198,0.168,south-southwest,6.1,No
2016/09/05,18:40,0.398,0.241,0.420,0.388,0.369,0.197,0.167,south-southwest,5.6,No
2016/09/05,18:50,0.403,0.241,0.425,0.385,0.366,0.195,0.168,south-southwest,6.7,No
2016/09/05,19:00,0.401,0.239,0.423,0.385,0.364,0.197,0.169,south-southwest,8.5,No
2016/09/05,19:10,0.396,0.239,0.420,0.390,0.368,0.197,0.168,south-southwest,7.5,No
2016/09/05,19:20,0.396,0.241,0.419,0.390,0.371,0.197,0.168,south-southwest,7.2,No
2016/09/05,19:30,0.401,0.241,0.422,0.387,0.368,0.197,0.167,south-southwest,9.2,No
2016/09/05,19:40,0.401,0.241,0.427,0.386,0.365,0.196,0.170,south-southwest,7.5,No
2016/09/05,19:50,0.397,0.239,0.424,0.387,0.364,0.196,0.169,south-southwest,8.4,No
2016/09/05,20:00,0.395,0.240,0.420,0.390,0.369,0.198,0.168,south-southwest,9.8,No
2016/09/05,20:10,0.398,0.242,0.419,0.388,0.368,0.198,0.168,south-southwest,10.2,No
2016/09/05,20:20,0.403,0.241,0.426,0.385,0.365,0.197,0.169,south-southwest,10.6,No
2016/09/05,20:30,0.397,0.239,0.427,0.386,0.364,0.196,0.169,south-southwest,9.5,No
2016/09/05,20:40,0.395,0.241,0.421,0.389,0.371,0.197,0.168,south-southwest,10.0,No
2016/09/05,20:50,0.395,0.241,0.418,0.388,0.370,0.198,0.167,south-southwest,9.8,No
2016/09/05,21:00,0.402,0.240,0.423,0.385,0.365,0.197,0.170,south-southwest,9.7,No
2016/09/05,21:10,0.400,0.240,0.424,0.384,0.363,0.197,0.169,south-southwest,8.1,No
2016/09/05,21:20,0.397,0.242,0.422,0.390,0.370,0.197,0.168,south-southwest,8.6,No
2016/09/05,21:30,0.396,0.241,0.420,0.389,0.369,0.198,0.168,south-southwest,8.8,No
2016/09/05,21:40,0.400,0.239,0.420,0.387,0.367,0.197,0.170,south-southwest,8.9,No
2016/09/05,21:50,0.399,0.241,0.425,0.383,0.364,0.197,0.168,south-southwest,8.7,No
2016/09/05,22:00,0.398,0.242,0.424,0.388,0.368,0.197,0.168,south-southwest,7.9,No
2016/09/05,22:10,0.395,0.241,0.420,0.389,0.368,0.198,0.169,south-southwest,8.0,No
2016/09/05,22:20,0.400,0.240,0.419,0.387,0.366,0.197,0.168,south-southwest,8.8,No
2016/09/05,22:30,0.400,0.242,0.425,0.385,0.365,0.197,0.169,south-southwest,8.8,No
2016/09/05,22:40,0.396,0.241,0.425,0.388,0.369,0.197,0.168,south-southwest,8.9,No
2016/09/05,22:50,0.396,0.239,0.421,0.390,0.368,0.198,0.169,south-southwest,7.8,No
2016/09/05,23:00,0.402,0.241,0.420,0.387,0.366,0.198,0.169,south-southwest,6.8,No
2016/09/05,23:10,0.402,0.241,0.425,0.385,0.366,0.197,0.169,south-southwest,6.9,No
2016/09/05,23:20,0.397,0.239,0.427,0.389,0.370,0.197,0.168,south-southwest,6.4,No
2016/09/05,23:30,0.399,0.241,0.421,0.388,0.367,0.197,0.168,south-southwest,6.9,No
2016/09/05,23:40,0.402,0.243,0.420,0.387,0.364,0.197,0.170,south,7.8,No
2016/09/05,23:50,0.400,0.240,0.425,0.385,0.369,0.197,0.168,south,7.5,No
